Location: ???????
(54.9996°N, 37.9529°E)
Time: 04:31:22
(UTC+00:00)

NOAA 11 - Pass Details

Date: 14 April 2024
Orbit: 833 x 848 km, 98.5° (Epoch: 23 May)

Event Time Altitude Azimuth Distance (km) Brightness Sun altitude
Rises 01:17:33 0° 16° (NNE) 3,398 8.2 -9.8°
Reaches altitude 10° 01:19:54 10° 16° (NNE) 2,461 7.4 -9.5°
Maximum altitude 01:25:23 86° 106° (ESE) 847 4.3 -8.8°
Drops below altitude 10° 01:30:51 10° 196° (SSW) 2,453 6.2 -8.2°
Sets 01:33:12 0° 197° (SSW) 3,385 6.9 -7.9°
